Weather History for KHRI - December, 2012

Change the Weather History Date:

Tuesday, December 11, 2012

  Actual Average Record
Temperature  
Mean Temperature 40 °F -  
Max Temperature 46 °F 44 °F 68 °F (1993)
Min Temperature 35 °F 27 °F -14 °F (1932)
Degree Days  
Heating Degree Days 24    
Moisture  
Dew Point 34 °F    
Average Humidity 78    
Maximum Humidity 97    
Minimum Humidity 60    
Precipitation  
Precipitation 0.11 in - - ()
Sea Level Pressure  
Sea Level Pressure 29.73 in    
Wind  
Wind Speed 6 mph (South)    
Max Wind Speed 9 mph    
Max Gust Speed -    
Visibility 10 miles    
Events Rain    
Averages and records for this station are not official NWS values.
T = Trace of Precipitation, MM = Missing Value Source: NWS Daily Summary

Daily Weather History Graph

Daily Weather History Graph

Search for Another Location

Airport or City:

Trip Planner

Search our weather history database for the weather conditions in past years. The results will help you decide how hot, cold, wet, or windy it might be!

Date:

Astronomy

Dec. 11, 2012 Rise Set
Actual Time 7:28 AM PST 4:12 PM PST
Civil Twilight 6:54 AM PST 4:46 PM PST
Nautical Twilight 6:16 AM PST 5:24 PM PST
Astronomical Twilight 5:40 AM PST 6:00 PM PST
Moon 5:26 AM PST (12/11) 2:58 PM PST (12/11)
Length of Visible Light 9h 52m
Length of Day
8h 43m
Waning Crescent, 4% of the Moon is Illuminated
Dec 11
Waning Crescent
Dec 13
New
Dec 19
First Quarter
Dec 28
Full
Jan 4
Last Quarter

Hourly Weather History & Observations

Time (PST) Temp. Windchill Dew Point Humidity Pressure Visibility Wind Dir Wind Speed Gust Speed Precip Events Conditions
12:53 AM 42.1 °F 38.4 °F 34.0 °F 73% 30.04 in 10.0 mi SW 5.8 mph - N/A   Clear
1:53 AM 43.0 °F 40.3 °F 32.0 °F 65% 30.01 in 10.0 mi SSW 4.6 mph - N/A   Clear
2:53 AM 44.1 °F 40.1 °F 30.9 °F 60% 29.97 in 10.0 mi WSW 6.9 mph - N/A   Clear
3:53 AM 41.0 °F 36.4 °F 30.9 °F 67% 29.92 in 10.0 mi South 6.9 mph - N/A   Clear
4:53 AM 37.9 °F 33.5 °F 30.0 °F 73% 29.88 in 10.0 mi South 5.8 mph - N/A   Clear
5:53 AM 37.0 °F 32.4 °F 30.0 °F 76% 29.83 in 10.0 mi South 5.8 mph - N/A   Clear
6:53 AM 37.0 °F 33.3 °F 30.0 °F 76% 29.81 in 10.0 mi South 4.6 mph - N/A   Clear
7:53 AM 35.1 °F 31.0 °F 30.0 °F 82% 29.79 in 10.0 mi East 4.6 mph - N/A   Clear
8:53 AM 37.0 °F - 32.0 °F 82% 29.77 in 10.0 mi Calm Calm - N/A   Clear
9:53 AM 39.9 °F 36.7 °F 33.1 °F 77% 29.75 in 10.0 mi South 4.6 mph - N/A   Clear
10:53 AM 43.0 °F 40.3 °F 33.1 °F 68% 29.74 in 10.0 mi WSW 4.6 mph - N/A   Partly Cloudy
11:53 AM 44.1 °F 39.0 °F 35.1 °F 71% 29.70 in 10.0 mi South 9.2 mph - N/A   Partly Cloudy
12:53 PM 46.0 °F 41.4 °F 36.0 °F 68% 29.67 in 10.0 mi SSW 9.2 mph - N/A   Partly Cloudy
1:53 PM 45.0 °F 41.2 °F 36.0 °F 71% 29.65 in 10.0 mi WSW 6.9 mph - N/A   Overcast
2:53 PM 46.0 °F 41.9 °F 37.0 °F 71% 29.62 in 10.0 mi SW 8.1 mph - N/A   Overcast
3:53 PM 45.0 °F 40.1 °F 37.0 °F 74% 29.61 in 10.0 mi SSW 9.2 mph - N/A   Overcast
4:53 PM 43.0 °F 39.5 °F 37.9 °F 82% 29.62 in 10.0 mi South 5.8 mph - 0.01 in Rain Light Rain
5:53 PM 42.1 °F 38.4 °F 37.9 °F 85% 29.62 in 10.0 mi South 5.8 mph - 0.04 in Rain Light Rain
6:53 PM 42.1 °F 38.4 °F 39.0 °F 89% 29.61 in 10.0 mi South 5.8 mph - 0.04 in Rain Light Rain
7:53 PM 41.0 °F - 39.0 °F 93% 29.61 in 10.0 mi Calm Calm - 0.02 in Rain Light Rain
8:53 PM 39.9 °F 37.8 °F 37.9 °F 93% 29.59 in 10.0 mi SE 3.5 mph - 0.00 in   Mostly Cloudy
9:53 PM 39.9 °F 35.8 °F 37.0 °F 89% 29.60 in 10.0 mi SE 5.8 mph - N/A   Mostly Cloudy
10:53 PM 37.9 °F 33.5 °F 36.0 °F 93% 29.60 in 10.0 mi South 5.8 mph - N/A   Mostly Cloudy
11:53 PM 36.0 °F 31.1 °F 35.1 °F 97% 29.60 in 10.0 mi South 5.8 mph - N/A   Partly Cloudy